Location: Bergnershof
(48.9468°N, 10.9431°E)
Time: 14:13:02
(UTC+00:00)

Cosmos 2333 Rocket - Pass Details

Date: 26 June 2021
Orbit: 841 x 861 km, 70.8° (Epoch: 28 July)

Event Time Altitude Azimuth Distance (km) Brightness Sun altitude
Rises 22:35:22 0° 282° (WNW) 3,428 5.7 -17.1°
Reaches altitude 10° 22:39:47 10° 314° (NW) 2,490 5.4 -17.2°
Maximum altitude 22:41:47 12° 335° (NNW) 2,365 5.7 -17.2°
Drops below altitude 10° 22:43:46 10° 355° (N) 2,487 6.0 -17.3°
Sets 22:48:11 0° 27° (NNE) 3,421 6.3 -17.4°
